Regional Weather Roundup
Issued by NWS

Home | Current Version | Previous Version | Graphics & Text | Print | Product List | Glossary On
Versions: 1 2 3 4 5 6 7 8 9 10 11 12 13 14 15 16 17 18 19 20 21 22 23 24 25 26 27 28 29 30 31 32 33 34 35 36 37 38 39 40 41 42 43 44 45 46 47 48 49 50
000
ASUS43 KFSD 041810
RWRSD

WEATHER ROUNDUP FOR SOUTH DAKOTA
NATIONAL WEATHER SERVICE SIOUX FALLS SD
100 PM CDT FRI SEP 04 2015

NOTE: "FAIR" INDICATES FEW OR NO CLOUDS BELOW 12,000 FEET WITH NO
SIGNIFICANT WEATHER AND/OR OBSTRUCTIONS TO VISIBILITY.


SDZ001>005-009-010-012>017-041900-
NORTHWEST AND NORTH CENTRAL SOUTH DAKOTA

CITY           SKY/WX    TMP DP  RH WIND       PRES   REMARKS
BUFFALO          N/A     80  60  50 NE5       29.78S
FAITH            N/A     89  53  29 S12       29.79R
MOBRIDGE       PTSUNNY   86  66  51 SE12G21   29.77F
$$

SDZ012>016-024>037-041>051-057-063-072>074-041900-
SOUTHWEST AND SOUTH CENTRAL SOUTH DAKOTA

CITY           SKY/WX    TMP DP  RH WIND       PRES   REMARKS
RAPID CTY ARPT SUNNY     83  54  36 VRB3      29.83S
PIERRE         SUNNY     85  66  53 E5        29.75F
CUSTER         SUNNY     82  43  25 VRB7      29.98S
PHILIP         SUNNY     87  62  43 SE6       29.77F
PINE RIDGE     SUNNY     88  50  27 SW7       29.85S
WINNER         FAIR      87  63  44 S9        29.79S
$$

SDZ004>011-016>023-039-040-041900-
NORTHEAST SOUTH DAKOTA

CITY           SKY/WX    TMP DP  RH WIND       PRES   REMARKS
ABERDEEN       CLOUDY    80  68  66 S8        29.80F
WATERTOWN      CLOUDY    76  68  76 S6        29.85F
BROOKINGS      CLOUDY   N/A N/A N/A SE5       29.88S
SISSETON         N/A     73  70  90 S5        29.81F
$$

SDZ017-020-022-023-036>040-048>070-041900-
SOUTHEAST SOUTH DAKOTA

CITY           SKY/WX    TMP DP  RH WIND       PRES   REMARKS
SIOUX FALLS    LGT RAIN  73  67  81 SE13      29.86S
HURON          PTSUNNY   84  68  58 S15G21    29.77F
CHAMBERLAIN    MOSUNNY   82  69  66 S12       29.78F
MITCHELL       PTSUNNY   85  68  56 S12       29.79F
YANKTON        MOSUNNY   84  70  61 S16G26    29.81F
$$

ABBREVIATIONS USED IN REMARKS
   TC - TEMPERATURE IN CELSIUS
  WCI - WIND CHILL INDEX
   HX - HEAT INDEX
  VSB - VISIBILITY




USA.gov is the U.S. government's official web portal to all federal, state and local government web resources and services.